Bishop, CA

1:22 AM PDT on May 22, 2018 (GMT -0700)
Bishop

Weather History for KBIH - February, 2014

Change the Weather History Date:

Tuesday, February 11, 2014

  Actual Average Record
Temperature  
Mean Temperature 46 °F 41 °F  
Max Temperature 68 °F 57 °F 75 °F (1971)
Min Temperature 24 °F 26 °F 12 °F (1948)
Degree Days  
Heating Degree Days 19 24  
Month to date heating degree days 271 269  
Since 1 July heating degree days 2697 2838  
Cooling Degree Days 0 0  
Month to date cooling degree days 0 0  
Year to date cooling degree days 0 0  
Moisture  
Dew Point 14 °F    
Average Humidity 41    
Maximum Humidity 74    
Minimum Humidity 8    
Precipitation  
Precipitation 0.00 in 0.03 in 0.74 in (1992)
Month to date precipitation 0.00 0.31  
Year to date precipitation 0.20 1.36  
Snow  
Snow 0.00 in 0.00 in 6.90 in (2001)
Month to date snowfall 0.0 0.4  
Since 1 July snowfall 0.5 7.1  
Snow Depth 0.00 in    
Sea Level Pressure  
Sea Level Pressure 30.11 in    
Wind  
Wind Speed 5 mph (WNW)    
Max Wind Speed 14 mph    
Max Gust Speed 15 mph    
Visibility 10 miles    
Events      
T = Trace of Precipitation, MM = Missing Value Source: NWS Daily Summary

Daily Weather History Graph

Daily Weather History Graph

Search for Another Location

Airport or City:

Astronomy

Feb. 11, 2014 Rise Set
Actual Time 6:46 AM PST 5:28 PM PST
Civil Twilight 6:20 AM PST 5:55 PM PST
Nautical Twilight 5:49 AM PST 6:26 PM PST
Astronomical Twilight 5:18 AM PST 6:56 PM PST
Moon 2:55 PM PST (2/11) 4:25 AM PST (2/11)
Length of Visible Light 11h 35m
Length of Day
10h 42m
Waxing Gibbous, 91% of the Moon is Illuminated
Feb 11
Waxing Gibbous
Feb 14
Full
Feb 22
Last Quarter
Mar 1
New
Mar 8
First Quarter

Hourly Weather History & Observations

Time (PST) Temp. Windchill Dew Point Humidity Pressure Visibility Wind Dir Wind Speed Gust Speed Precip Events Conditions
12:56 AM 39.9 °F 35.1 °F 26.1 °F 58% 30.10 in 10.0 mi NW 6.9 mph - N/A   Clear
1:56 AM 37.0 °F 30.4 °F 25.0 °F 62% 30.10 in 10.0 mi NW 9.2 mph - N/A   Clear
2:56 AM 36.0 °F 29.6 °F 24.1 °F 62% 30.10 in 10.0 mi WNW 8.1 mph - N/A   Clear
3:56 AM 37.9 °F 30.0 °F 23.0 °F 55% 30.10 in 10.0 mi NNW 12.7 mph - N/A   Clear
4:56 AM 33.1 °F 30.0 °F 21.0 °F 61% 30.12 in 10.0 mi North 3.5 mph - N/A   Clear
5:56 AM 30.0 °F 21.1 °F 19.0 °F 64% 30.14 in 10.0 mi West 10.4 mph - N/A   Clear
6:56 AM 24.1 °F 17.0 °F 17.1 °F 75% 30.18 in 10.0 mi NE 5.8 mph - N/A   Clear
7:56 AM 33.1 °F 28.7 °F 19.9 °F 59% 30.18 in 10.0 mi NW 4.6 mph - N/A   Clear
8:56 AM 44.1 °F - 21.9 °F 42% 30.17 in 10.0 mi Calm Calm - N/A   Clear
9:56 AM 50.0 °F - 19.0 °F 29% 30.16 in 10.0 mi Calm Calm - N/A   Clear
10:56 AM 55.0 °F - 16.0 °F 22% 30.16 in 10.0 mi ESE 3.5 mph - N/A   Clear
11:56 AM 61.0 °F - 9.0 °F 13% 30.09 in 10.0 mi Calm Calm - N/A   Clear
12:56 PM 64.0 °F - 6.1 °F 10% 30.05 in 10.0 mi Variable 3.5 mph - N/A   Clear
1:56 PM 66.0 °F - 6.1 °F 9% 30.02 in 10.0 mi SSE 5.8 mph - N/A   Clear
2:56 PM 66.9 °F - 3.9 °F 8% 30.01 in 10.0 mi SSW 3.5 mph - N/A   Clear
3:56 PM 68.0 °F - 5.0 °F 8% 30.02 in 10.0 mi Calm Calm - N/A   Clear
4:56 PM 66.0 °F - 5.0 °F 9% 30.02 in 10.0 mi SSW 5.8 mph - N/A   Clear
5:56 PM 53.1 °F - 5.0 °F 14% 30.09 in 10.0 mi SE 4.6 mph - N/A   Clear
6:56 PM 55.0 °F - 8.1 °F 15% 30.13 in 10.0 mi SSW 5.8 mph - N/A   Clear
7:56 PM 52.0 °F - 10.0 °F 19% 30.14 in 10.0 mi SE 4.6 mph - N/A   Clear
8:56 PM 46.0 °F - 10.0 °F 23% 30.15 in 10.0 mi Calm Calm - N/A   Clear
9:56 PM 39.0 °F 36.8 °F 9.0 °F 29% 30.17 in 10.0 mi Variable 3.5 mph - N/A   Clear
10:56 PM 39.0 °F 33.4 °F 12.0 °F 33% 30.19 in 10.0 mi WNW 8.1 mph - N/A   Mostly Cloudy
11:56 PM 41.0 °F 38.0 °F 12.9 °F 32% 30.15 in 10.0 mi NE 4.6 mph - N/A   Overcast